Zurück zum Katalog

GLOBALSTAR M039

AktivKommunikationLEO
NORAD 25961·PAYLOAD·🇺🇸 United States

Gestartet Nov 22, 1999 von Baikonur Cosmodrome

Loading…

Nächste Überflüge (nächste 24 Stunden)

TLE

AktuellSource: Space-Track

Epoche: Sep 14, 2026, 21:24 UTC

1 25961U 99062A   26257.89224600 -.00000069  00000-0  19474-3 0  9996
2 25961  51.9863 323.7387 0002345 271.9432  88.1166 12.62351132237640

Verfolge GLOBALSTAR M039 in Echtzeit mit AllMySat

Download on the App Store